Regional Weather Roundup
Issued by NWS

Home | Current Version | Previous Version | Graphics & Text | Print | Product List | Glossary On
Versions: 1 2 3 4 5 6 7 8 9 10 11 12 13 14 15 16 17 18 19 20 21 22 23 24 25 26 27 28 29 30 31 32 33 34 35 36 37 38 39 40 41 42 43 44 45 46 47 48 49 50
000
ASUS43 KDTX 242001
RWRMI
MICHIGAN HOURLY REGIONAL WEATHER ROUNDUP
NATIONAL WEATHER SERVICE DETROIT/PONTIAC MI
400 PM EDT THU APR 24 2014

NOTE: "FAIR" INDICATES FEW OR NO CLOUDS BELOW 12,000 FEET WITH NO
SIGNIFICANT WEATHER AND/OR OBSTRUCTION TO VISIBILITY.

MIZ047>049-052>055-059>063-066>070-074>076-081>083-242100-
SOUTHEAST LOWER MICHIGAN

CITY           SKY/WX    TMP DP  RH WIND       PRES   REMARKS
ADRIAN         CLOUDY    54  22  28 SE14G22   30.04F
ALMA           PTSUNNY   56  19  23 SE14G21   30.01F
ANN ARBOR      PTSUNNY   52  17  25 SE13G20   30.04F
BAD AXE        MOSUNNY   51  17  25 SE6       30.09F
CARO           CLOUDY    55  20  25 SE6       30.05F
DETROIT CITY   MOSUNNY   56  19  23 E12       30.08F
DETROIT        PTSUNNY   53  16  23 S12G17    30.08F
FLINT          MOSUNNY   58  19  22 SE16G22   30.04F
GROSSE ILE     PTSUNNY   52  21  30 S12G17    30.06F
HILLSDALE      PTSUNNY   56  18  23 SE13G20   30.00F
HOWELL         PTSUNNY   54  18  24 SE13      30.03F

CITY           SKY/WX    TMP DP  RH WIND       PRES   REMARKS
JACKSON        PTSUNNY   55  22  27 SE15G25   30.01F
LAMBERTVILLE   PTSUNNY   52  25  35 E10G16    30.05F
LANSING        PTSUNNY   56  22  26 SE16G23   30.01F
LAPEER         FAIR      55  19  25 SE8G18    30.06F
MASON          PTSUNNY   56  23  27 SE17      30.01F
MONROE         PTSUNNY   52  19  28 E10G18    30.06F
MT. CLEMENS    PTSUNNY   53  20  26 S9        30.07F
PONTIAC        PTSUNNY   54  16  22 SE12G23   30.04F
PORT HOPE        N/A     41  33  73 E10       30.09F
PORT HURON     MOSUNNY   54  27  35 NE10      30.08F
TRI CITIES     CLOUDY    56  20  24 SE15      30.04F
TROY           PTSUNNY   55  16  21 S8        30.07F
SAGINAW HB     PTSUNNY   55  19  24 SE8G16    30.04F
YPSILANTI      PTSUNNY   56  16  20 SE14      30.06F
$$
MIZ043>046-050>051-056>058-064>065-071>073-077>080-242100-
SOUTHWEST LOWER MICHIGAN

CITY           SKY/WX    TMP DP  RH WIND       PRES   REMARKS
BATTLE CREEK   CLOUDY    56  19  23 S20G25    29.97F
BENTON HARBOR  CLOUDY    58  25  28 SE21G32   29.89F
BIG RAPIDS     CLOUDY    53  22  29 SE17G24   29.97F
COLDWATER      PTSUNNY   55  16  21 SE14G26   29.98F
FREMONT        FAIR      56  24  29 SE16G24   29.94F
HOLLAND        PTSUNNY   59  24  26 SE18G26   29.93F
GRAND RAPIDS   CLOUDY    56  22  26 E21G30    29.97F
IONIA          MOCLDY    55  23  29 SE22      29.97F
KALAMAZOO      CLOUDY    57  18  21 SE15G24   29.97F
LUDINGTON      CLOUDY    55  31  40 SE15G23   29.92F
MARSHALL       PTSUNNY   56  20  25 SE12G18   29.98F
MOUNT PLEASANT PTSUNNY   57  20  23 SE15G21   30.01F
MUSKEGON       CLOUDY    60  23  24 E21G30    29.92F
SOUTH HAVEN    CLOUDY    58  20  23 SE10G24   29.91F
$$
MIZ016>042-242100-
NORTHERN LOWER MICHIGAN

CITY           SKY/WX    TMP DP  RH WIND       PRES   REMARKS
ALPENA         CLOUDY    46  27  47 SE9       30.09F
BEAVER ISLAND  CLOUDY    45  26  47 E5        30.03F
BELLAIRE       CLOUDY    56  20  24 SE10G17   30.00F
CADILLAC       CLOUDY    49  22  33 E10G21    29.98F
CHARLEVOIX     CLOUDY    51  18  27 E10       30.03F
FRANKFORT      LGT RAIN  44  36  74 SE5       29.99S
GAYLORD        CLOUDY    52  17  25 SE10      30.02F
GRAYLING       CLOUDY    53  15  22 E18       30.03F
HARBOR SPRINGS CLOUDY    54  18  24 E7        30.01F
HOUGHTON LAKE  CLOUDY    51  16  24 SE14      30.03F
MANISTEE       CLOUDY    45  37  76 E9        29.97F
OSCODA         CLOUDY    45  27  49 E6        30.10F
PELLSTON       CLOUDY    54  19  25 E12       30.04F
ROGERS CITY    CLOUDY    51  26  37 E12       30.09F
TRAVERSE CITY  CLOUDY    55  18  23 SE13G24   29.97F
$$
MIZ007>008-015-242100-
EASTERN UPPER MICHIGAN

CITY           SKY/WX    TMP DP  RH WIND       PRES   REMARKS
KINROSS        CLOUDY    48  18  29 SE15      30.07F
MACKINAC ISLAN CLOUDY    37  29  72 E13       30.06F WCI  29
NEWBERRY       CLOUDY    47  23  38 SE14G20   30.04F
S. S. MARIE    CLOUDY    50  20  30 S10       30.07F
MUNISING         N/A     49  19  30 S8        30.00F
$$
MIZ004>006-011>014-085-242100-
CENTRAL UPPER MICHIGAN

CITY           SKY/WX    TMP DP  RH WIND       PRES   REMARKS
MANISTIQUE     CLOUDY    46  24  43 SE8G17    30.02F
ESCANABA       CLOUDY    39  30  70 SE8       30.01S WCI  34
MENOMINEE      CLOUDY    36  34  93 E13       29.95F WCI  27
SAWYER-GWINN   CLOUDY    45  21  39 SE10      29.98F
$$
MIZ001>003-009>011-084-242100-
WESTERN UPPER MICHIGAN

CITY           SKY/WX    TMP DP  RH WIND       PRES   REMARKS
IRON MOUNTAIN  LGT RAIN  37  35  92 SE10      29.92F FOG     WCI  30
HOUGHTON       CLOUDY    37  25  61 E12       29.94F WCI  29
COPPER HARBOR    N/A     43  22  43 S9G18     29.99F
IRONWOOD       CLOUDY    37  32  81 E14       29.80F WCI  29
$$

ABBREVIATIONS USED IN REMARKS
   TC - TEMPERATURE IN CELSIUS
  WCI - WIND CHILL INDEX
   HX - HEAT INDEX
  VSB - VISIBILITY




USA.gov is the U.S. government's official web portal to all federal, state and local government web resources and services.